Location: Hermaringen
(48.5952°N, 10.2585°E)
Time: 15:19:36
(UTC+00:00)

Explorer 7 - Pass Details

Date: 16 February 2026
Orbit: 430 x 541 km, 50.2° (Epoch: 8 March)

Event Time Altitude Azimuth Distance (km) Brightness Sun altitude
Rises 18:57:40 0° 284° (WNW) 2,530 11.7 -23.0°
Reaches altitude 10° 18:59:47 10° 285° (WNW) 1,671 10.4 -23.4°
Enters shadow 19:03:00 62° 292° (WNW) 563 7.0 -23.9°
